Location: NJAA Observatory
(40.6819°N, 74.8979°W)
Time: 22:12:07
(UTC-05:00)

S-56A Canister/Altair - Visible Passes

Search period start: 20 February 2018 00:00
Search period end: 02 March 2018 00:00
Orbit: 633 x 2500 km, 38.9° (Epoch: 19 February)

Date Brightness Start Highest point End Pass type
(mag) Time Alt. Az. Time Alt. Az. Time Alt. Az.
20 Feb 10.9 01:12:42 28° E 01:12:42 28° E 01:18:13 10° E visible
20 Feb 9.6 03:10:08 82° SSW 03:10:22 82° S 03:25:40 10° ESE visible
20 Feb 10.1 05:07:33 25° W 05:17:00 61° SSW 05:31:33 10° SE visible
21 Feb 11.3 00:41:49 18° E 00:41:49 18° E 00:44:32 10° E visible
21 Feb 9.8 02:39:15 69° ESE 02:39:15 69° ESE 02:52:07 10° E visible
21 Feb 9.9 04:36:41 36° W 04:43:36 64° SSW 04:58:26 10° SE visible
22 Feb 10.2 02:08:25 50° E 02:08:25 50° E 02:18:30 10° E visible
22 Feb 9.8 04:05:51 50° W 04:10:11 68° SSW 04:25:13 10° ESE visible
22 Feb 10.6 06:03:34 10° W 06:15:56 37° SW 06:28:42 10° SSE visible
23 Feb 10.6 01:37:39 35° E 01:37:39 35° E 01:44:51 10° E visible
23 Feb 9.6 03:35:05 65° WSW 03:36:49 70° SSW 03:51:52 10° ESE visible
23 Feb 10.4 05:32:32 17° W 05:42:41 40° SW 05:56:00 10° SSE visible
24 Feb 11.0 01:06:56 23° E 01:06:56 23° E 01:11:10 10° E visible
24 Feb 9.6 03:04:23 71° S 03:04:23 71° S 03:18:25 10° ESE visible
24 Feb 10.3 05:01:50 25° W 05:09:26 44° SW 05:23:09 10° SSE visible
25 Feb 11.4 00:36:18 13° E 00:36:18 13° E 00:37:28 10° E visible
25 Feb 9.9 02:33:46 56° SE 02:33:46 56° SE 02:44:55 10° ESE visible
25 Feb 10.0 04:31:13 36° WSW 04:36:09 47° SSW 04:50:10 10° SE visible
26 Feb 10.4 02:03:13 39° ESE 02:03:13 39° ESE 02:11:20 10° ESE visible
26 Feb 9.8 04:00:40 47° SW 04:02:53 50° SSW 04:17:03 10° SE visible
26 Feb 10.9 05:58:36 10° W 06:07:58 22° SW 06:17:57 10° S visible
27 Feb 10.9 01:32:45 26° ESE 01:32:45 26° ESE 01:37:42 10° ESE visible
27 Feb 9.8 03:30:13 53° SSW 03:30:13 53° SSW 03:43:51 10° SE visible
27 Feb 10.7 05:27:41 16° W 05:34:52 24° SW 05:45:39 10° S visible
28 Feb 11.3 01:02:22 15° ESE 01:02:22 15° ESE 01:04:03 10° ESE visible
28 Feb 10.0 02:59:50 47° SSE 02:59:50 47° SSE 03:10:32 10° SE visible
28 Feb 10.5 04:57:19 23° WSW 05:01:45 27° SW 05:13:07 10° S visible
28 Feb 9.7 20:04:57 10° SSW 20:06:11 15° S 20:06:11 15° S visible
01 Mar 10.5 02:29:33 35° SE 02:29:33 35° SE 02:37:08 10° SE visible
01 Mar 10.3 04:27:01 29° SW 04:28:38 30° SW 04:40:25 10° SSE visible
01 Mar 9.3 19:33:19 10° S 19:35:54 18° SSE 19:35:54 18° SSE visible
